Dewpoint
55 55 55 55 55 55 55 55 54 52 52 51 50 52 47 39 34 37 36 33 28 24 21 26 21 16 17 19 17 15 18 18 15 17 17 15 11 10 11 10 8 7 9 8 8 12 10 8 5 9 2 6 13 13 13 13 8 -0 4 8 17 34 18 15 12 17 17 14 12 13 20 23 20 26 29 24 23 33 33 33 35 32 33 31 33 32 46
55 55 54 54 54 55 55 55 54 53 52 53 52 49 42 40 40 38 36 34 31 27 22 19 17 17 18 17 15 15 15 18 17 16 15 16 12 9 11 10 5 8 7 7 10 12 13 9 10 11 11 9 14 14 13 13 9 5 23 23 17 15 27 23 20 18 19 16 14 15 19 20 24 25 28 28 27 26 29 32 34 32 32 30 33 32 42
55 55 54 54 54 55 55 55 54 54 53 53 53 48 46 43 39 37 36 37 32 26 24 21 18 20 21 21 20 18 17 17 17 16 14 17 16 12 10 10 9 8 8 9 9 11 9 14 12 11 12 10 13 14 13 12 10 19 27 42 18 18 20 25 17 18 17 17 16 19 19 19 19 21 21 27 29 32 31 30 34 30 35 35 33 33 44
55 54 54 54 54 55 55 55 55 54 53 52 52 48 44 40 38 31 28 34 32 30 27 22 19 19 22 25 27 23 18 15 17 16 16 17 17 14 13 11 10 9 8 11 11 12 12 12 19 16 11 12 11 12 14 15 11 40 37 31 20 16 17 23 25 22 17 21 26 19 21 17 15 15 14 14 17 28 34 35 33 28 33 34 39 40 40
54 54 54 54 54 55 55 55 54 54 53 53 51 51 47 42 37 35 36 30 31 29 27 22 18 18 22 29 30 29 19 20 17 17 16 17 18 17 15 13 12 12 10 9 10 10 10 14 14 14 12 12 12 15 15 15 24 46 24 27 17 24 14 11 23 21 20 18 23 12 10 12 15 17 18 20 22 24 31 34 33 38 33 30 35 40 41
53 54 54 54 55 55 55 55 54 54 53 52 52 48 46 42 41 39 34 34 34 29 28 25 19 16 17 22 26 26 26 24 21 16 17 17 17 18 20 17 14 13 10 13 13 15 16 18 16 13 13 14 12 14 14 15 42 35 17 19 22 21 22 22 19 15 14 13 15 16 16 16 19 20 21 22 23 26 25 27 31 34 33 31 37 38 38
53 53 54 54 55 56 56 55 54 53 52 51 51 46 43 43 39 37 41 40 34 35 35 34 28 25 19 21 22 22 23 25 22 17 19 22 23 19 20 18 16 16 14 13 15 25 17 18 19 21 18 19 19 17 17 16 19 19 20 22 32 29 22 22 17 19 19 19 19 16 14 17 20 22 24 24 22 22 24 26 33 35 36 39 42 46 41
53 53 53 54 55 56 56 55 55 53 51 51 49 49 44 43 40 40 40 39 38 38 36 34 33 32 36 32 28 25 22 25 26 21 17 23 22 18 18 16 16 15 15 23 15 16 18 19 22 23 23 21 22 20 20 21 21 19 19 17 30 23 25 28 20 23 21 19 20 16 12 18 22 24 24 23 20 19 22 25 32 36 35 36 39 41 42
52 52 53 54 55 55 55 55 55 53 50 51 52 51 48 47 46 46 41 38 37 38 37 35 34 33 35 33 31 32 31 30 28 27 25 19 21 20 19 18 16 15 16 16 14 13 17 20 19 20 23 22 19 20 23 20 21 19 21 19 24 24 23 20 21 23 23 19 18 18 19 18 25 25 25 24 22 25 26 29 34 32 35 38 42 40 43
52 52 53 54 55 55 55 56 55 53 50 52 52 49 51 50 49 49 47 42 44 37 34 34 32 29 30 32 32 31 29 28 27 29 26 25 22 22 23 20 16 18 18 17 15 14 13 13 15 18 16 13 13 17 16 14 19 20 21 24 20 27 26 26 20 22 23 20 18 19 21 21 21 22 25 32 31 33 33 31 33 36 38 39 40 43 50
52 53 54 54 55 55 55 56 56 53 52 51 52 50 52 52 49 49 45 42 41 38 36 34 34 34 28 28 28 27 28 29 29 28 31 24 25 27 27 26 27 24 21 18 17 16 15 13 12 12 14 15 14 15 14 14 14 16 19 18 20 25 18 21 25 21 20 20 20 21 20 19 23 30 29 28 29 30 32 31 28 28 33 45 48 50 55
50 52 53 54 54 55 55 56 56 55 53 53 54 52 53 54 51 51 48 44 41 39 37 36 36 34 30 30 27 28 27 27 29 32 33 33 32 32 30 29 28 32 24 19 16 18 18 14 14 21 13 14 14 16 15 15 15 24 16 19 20 20 23 23 30 23 22 22 24 22 20 21 33 29 27 29 31 32 31 29 27 33 43 43 44 48 49
50 51 52 54 54 55 55 55 56 56 54 52 52 51 53 54 53 51 50 46 42 41 39 38 38 35 30 30 30 29 28 28 30 33 34 35 35 33 32 33 30 27 27 23 19 20 19 19 21 19 17 15 14 15 15 15 16 17 16 18 21 19 18 21 23 23 23 22 23 20 21 29 26 27 27 31 28 29 32 33 40 41 42 45 45 47 51
51 51 52 52 53 54 54 54 56 56 55 54 51 52 52 55 53 52 51 48 44 42 40 38 37 36 32 30 30 28 29 30 31 31 31 31 32 33 34 34 31 28 27 27 26 29 27 26 23 23 19 19 20 19 15 19 16 17 17 18 17 20 24 20 18 26 21 22 22 22 32 28 27 25 26 32 34 32 33 33 35 43 48 48 49 51 54
51 51 51 51 52 53 53 53 55 56 55 53 52 51 53 56 56 53 54 50 43 42 42 39 37 35 35 36 34 32 32 33 31 29 26 27 30 32 34 35 33 31 30 31 31 31 26 26 22 21 25 22 19 23 22 20 22 23 22 21 23 35 26 25 25 22 21 20 21 24 24 25 26 34 33 33 32 31 34 39 38 47 47 49 51 52 53
51 52 52 51 52 52 52 53 55 56 55 54 52 52 54 55 56 55 52 50 49 38 35 35 35 35 36 37 37 35 34 34 35 33 30 31 28 28 29 30 31 31 28 30 35 33 29 24 21 22 20 24 26 28 27 28 26 23 24 23 21 22 28 34 22 21 22 24 23 24 26 28 30 35 34 32 31 31 35 31 34 46 48 49 51 53 56
52 52 52 52 52 53 53 53 55 55 55 54 51 50 51 55 55 53 51 51 48 40 39 37 36 35 35 35 34 36 36 32 32 32 31 33 30 27 25 25 29 30 31 33 34 30 27 27 26 25 27 30 29 27 33 29 29 26 26 25 21 25 21 23 22 23 20 21 21 22 25 25 36 39 36 29 31 30 33 29 32 45 49 50 50 53 54
52 52 52 53 52 52 54 54 55 55 55 54 52 51 51 54 56 55 52 51 47 42 38 35 34 35 35 36 35 38 39 38 37 38 35 35 33 31 27 26 25 27 30 32 36 29 28 24 23 21 19 29 31 27 25 29 30 30 29 29 25 26 26 21 18 17 22 28 22 22 24 36 35 38 39 36 35 34 26 26 43 49 52 51 52 51 53
52 52 52 52 52 52 53 54 55 55 56 54 53 52 51 54 54 55 53 50 49 44 41 40 41 39 36 36 36 35 35 38 41 39 38 35 36 35 33 34 31 29 29 30 34 31 26 27 26 24 22 30 32 26 30 28 30 30 30 28 29 28 30 30 26 19 19 21 19 18 27 44 41 40 44 44 38 30 40 47 51 51 51 53 53 51 54
53 52 52 52 51 52 53 54 55 55 56 55 53 51 51 53 55 55 52 48 49 48 47 46 45 42 43 43 37 35 38 37 39 37 34 33 43 36 33 31 35 33 35 36 31 30 27 25 23 30 22 23 31 33 30 31 32 31 30 32 28 28 28 26 24 26 23 26 22 22 23 43 38 39 39 45 39 43 47 51 53 54 53 53 53 52 54
52 52 52 52 52 52 53 54 55 55 56 56 53 52 51 53 53 53 53 52 49 47 45 43 43 45 44 42 42 42 41 39 41 41 39 37 46 41 33 33 33 33 32 35 29 28 30 25 25 28 28 25 42 32 28 30 32 33 32 31 30 32 27 26 25 29 23 23 24 28 39 45 46 43 38 44 48 46 49 50 53 53 54 53 52 55 56
53 52 52 53 52 52 53 53 54 55 56 55 54 53 50 52 56 54 54 54 50 48 47 47 47 45 43 41 40 41 42 41 41 43 43 44 48 41 40 41 40 39 38 34 28 31 30 28 30 28 25 29 40 37 35 28 26 31 35 36 29 36 33 41 37 36 31 30 33 43 44 43 43 45 47 47 50 49 54 54 53 55 55 56 52 55 58
53 52 52 53 53 52 52 53 53 55 56 55 55 53 49 51 53 55 54 50 50 48 48 46 44 43 41 39 36 35 36 37 37 37 40 43 43 44 42 41 39 39 40 43 40 39 44 44 47 43 38 27 37 33 32 27 27 35 32 32 31 39 38 42 38 33 35 33 33 37 39 41 41 40 48 49 49 51 53 52 53 52 55 55 53 56 58
53 53 53 52 53 52 52 54 54 55 56 56 55 52 51 52 53 53 51 50 47 45 46 46 43 40 34 31 32 33 31 31 33 36 38 42 40 41 42 43 40 39 43 50 53 47 44 43 42 40 36 35 30 25 26 29 31 31 32 31 32 35 33 32 31 37 29 28 39 35 39 44 42 44 50 52 52 55 53 55 55 56 57 56 57 57 58
53 53 53 53 54 54 54 55 55 55 56 56 55 54 53 52 52 51 49 46 45 43 40 41 42 41 40 38 34 38 38 35 32 33 32 38 42 39 40 43 43 44 47 50 53 46 45 41 40 37 33 36 35 26 30 31 29 34 30 33 31 31 34 33 33 34 32 32 43 40 42 46 46 44 55 54 57 57 57 57 57 59 59 59 59 59 58
53 53 53 53 53 53 54 54 55 55 55 55 55 52 50 50 53 55 53 51 49 47 41 36 35 35 35 34 33 36 37 37 36 33 32 33 36 40 41 43 44 46 46 46 46 46 43 42 42 41 34 33 35 29 32 39 37 37 33 31 37 40 39 31 33 32 31 34 37 45 47 45 49 55 55 57 57 57 57 57 57 58 57 58 59 58 57
54 54 54 53 54 54 54 55 55 56 55 55 54 52 51 51 51 51 51 50 48 45 44 40 38 38 44 43 42 41 38 37 37 37 36 34 33 36 40 44 44 44 43 42 43 42 42 40 39 37 38 39 39 37 43 40 35 33 32 34 41 35 34 35 35 33 31 39 49 43 39 46 48 50 57 57 57 57 57 57 56 56 57 57 57 56 55
54 54 54 53 54 54 55 55 55 56 55 55 54 52 52 51 51 52 51 51 48 44 44 44 43 44 43 38 40 37 36 38 38 37 37 37 38 36 37 40 43 42 44 43 42 42 40 37 35 40 38 42 36 35 37 42 39 37 36 37 39 39 44 38 41 33 39 47 49 51 51 55 54 56 56 56 55 56 56 56 55 56 56 56 55 53 51
54 54 54 54 54 54 54 55 54 55 55 54 52 51 51 51 51 50 49 51 51 48 46 45 44 40 34 31 28 31 35 35 35 35 35 36 38 39 40 40 41 41 42 42 42 43 40 40 40 36 37 41 36 35 37 35 35 34 36 39 39 43 45 48 45 42 40 42 46 45 50 52 56 57 57 56 56 54 55 56 57 56 56 55 54 52 50
54 54 54 54 54 54 54 54 55 54 55 53 51 49 46 46 49 50 49 49 51 50 46 42 40 39 40 39 38 37 37 35 34 34 35 34 35 37 39 42 44 42 43 42 41 39 39 39 40 39 39 50 39 39 34 35 33 35 39 43 40 42 44 46 46 43 48 48 50 56 54 54 56 56 56 56 56 55 54 56 56 56 56 56 54 52 52
53 53 53 54 54 54 55 54 54 55 54 51 50 47 44 42 52 54 51 50 52 50 47 45 41 41 39 38 36 36 37 38 38 36 35 35 36 36 37 40 42 42 43 43 41 39 42 39 39 41 42 44 41 36 33 34 34 36 45 49 46 52 48 45 48 46 46 50 55 56 56 56 56 55 54 54 54 55 56 57 58 57 56 56 56 56 55
53 53 53 53 53 54 54 54 54 54 53 51 48 46 50 49 52 53 53 53 53 50 46 42 42 41 42 40 35 33 30 30 30 33 36 35 37 36 39 36 42 44 46 43 43 42 40 43 42 43 39 44 45 36 34 35 36 39 44 46 47 47 48 46 47 51 43 48 49 55 53 53 54 54 53 53 52 55 55 56 57 57 58 56 54 54 55
53 53 53 53 53 53 53 54 54 54 52 53 52 52 51 52 52 53 53 53 52 49 48 46 41 41 40 40 38 34 36 36 34 37 39 39 40 39 38 39 39 41 50 45 41 40 41 42 42 40 43 52 43 40 38 37 38 39 44 46 45 45 49 49 48 46 47 46 44 52 53 51 52 55 55 54 54 53 56 56 56 55 55 55 56 57 57
53 53 53 53 52 52 52 52 54 54 53 50 47 45 45 52 52 52 52 53 51 51 50 46 42 40 39 37 36 41 35 37 40 40 38 42 43 38 40 39 41 41 43 39 42 42 41 41 40 39 45 45 43 41 40 40 41 42 45 46 47 46 46 48 48 46 48 48 46 49 54 54 54 56 55 55 54 55 55 55 55 55 55 55 55 57 58
52 53 53 53 52 53 53 53 52 50 47 47 45 47 46 52 51 51 52 51 47 46 45 45 45 42 39 39 35 41 41 38 40 41 37 41 41 41 42 40 42 39 41 41 41 39 38 40 42 42 39 43 42 40 40 41 45 46 47 46 46 48 46 46 47 47 52 52 48 56 55 56 56 55 54 54 53 53 54 54 54 53 55 56 54 57 59
52 53 53 52 52 53 52 52 51 49 47 46 45 55 55 55 53 53 53 53 51 48 46 45 45 40 39 37 35 42 40 39 41 42 43 44 40 43 42 40 38 38 45 41 39 39 37 41 43 39 40 41 42 41 43 45 49 48 48 47 48 49 49 48 48 45 48 50 49 57 54 54 54 55 54 53 54 53 53 52 53 53 54 55 55 58 59
53 52 52 52 52 50 47 47 50 47 48 53 53 56 57 54 52 53 52 52 53 52 47 45 44 44 40 37 38 42 40 39 39 39 43 40 42 43 40 41 37 41 39 38 39 40 39 45 43 41 40 37 42 48 50 50 50 51 50 51 50 50 52 51 48 48 46 47 49 55 55 52 53 55 54 53 54 54 53 53 53 55 54 55 56 55 57
53 53 51 50 49 46 44 44 46 49 55 55 54 51 49 51 49 47 51 48 47 50 47 46 44 45 46 41 39 44 42 41 43 40 41 42 41 43 42 40 37 38 35 35 39 44 44 44 44 41 42 45 50 53 53 53 51 53 54 53 55 53 52 50 47 53 52 51 50 51 54 53 53 54 53 53 52 52 53 54 54 55 56 57 56 57 58
52 51 49 50 49 44 45 52 56 56 49 52 50 50 47 47 48 45 44 45 48 45 45 44 42 43 42 41 40 44 42 44 41 47 44 55 44 44 42 38 42 39 35 36 43 47 43 46 43 42 40 43 43 47 54 55 54 52 54 56 55 55 54 50 50 50 55 54 54 55 54 54 55 54 54 54 54 52 54 56 56 56 57 57 56 58 59
51 49 48 48 45 48 55 54 54 52 49 49 49 48 44 46 43 39 42 41 40 42 43 41 42 42 42 41 40 41 43 40 38 39 46 49 49 46 51 44 49 40 37 37 41 44 39 38 39 40 39 41 44 49 52 53 53 54 54 55 55 54 53 53 53 49 53 56 59 55 52 48 53 53 53 53 52 50 50 54 55 55 56 57 58 57 57
48 48 47 46 52 52 54 58 52 49 49 47 47 46 45 41 43 44 43 39 38 38 42 40 42 42 42 41 41 41 46 43 48 48 46 45 53 51 49 44 47 41 37 38 45 43 40 38 40 40 40 44 47 51 50 51 52 52 55 55 55 57 53 53 53 52 54 56 56 56 55 58 59 55 54 53 52 50 51 52 54 55 57 57 57 57 56
52 51 52 51 51 52 51 53 50 48 47 50 43 39 39 42 42 41 42 39 38 38 37 40 40 42 43 43 42 41 45 45 47 48 46 42 49 44 44 51 50 41 37 36 43 42 42 39 37 37 41 47 50 51 52 52 53 52 53 56 56 57 53 51 52 51 50 57 58 57 57 57 58 57 59 59 54 54 54 55 55 55 56 58 57 55 55
51 51 51 49 49 48 48 44 48 47 38 39 39 36 38 36 39 38 39 40 40 39 40 42 41 43 43 44 43 43 45 47 43 48 42 43 52 47 43 42 45 37 42 48 41 39 37 35 36 37 44 48 51 53 54 53 52 53 54 58 59 60 57 55 54 54 54 55 56 57 59 59 59 58 59 59 57 55 58 58 59 58 58 57 56 55 55
50 49 48 47 46 46 48 36 48 43 38 39 37 34 37 35 37 38 36 37 40 38 42 41 41 39 40 43 42 42 43 47 45 48 45 49 44 44 41 37 38 43 47 45 40 35 36 38 37 39 48 49 51 54 55 56 54 55 56 57 56 57 56 57 56 56 57 55 57 58 59 58 58 59 60 60 60 57 57 59 59 59 59 58 58 56 55
47 46 45 44 40 44 40 35 48 40 36 37 37 37 34 36 33 33 34 38 38 37 40 42 42 42 41 45 43 43 42 42 46 41 41 49 43 44 40 38 43 44 40 39 39 39 39 38 40 45 48 50 53 53 55 56 57 57 56 56 56 57 57 55 56 56 56 57 57 57 57 58 58 58 58 60 60 57 56 57 59 59 58 57 58 57 57
44 40 39 37 34 37 37 35 38 37 39 40 38 37 37 34 35 37 37 38 39 41 40 40 40 43 41 48 40 46 41 43 41 40 46 48 42 40 45 52 49 41 41 40 38 35 36 38 40 46 48 50 53 55 56 56 54 53 54 55 56 57 57 56 56 55 57 58 58 59 59 59 58 58 58 58 59 60 57 58 59 58 58 58 58 57 56
45 44 42 39 37 38 42 36 36 37 38 38 38 41 41 40 43 46 54 43 40 40 41 43 48 51 41 41 41 42 42 42 40 47 42 41 40 47 49 45 41 38 37 38 39 40 38 49 46 53 54 53 52 53 53 54 54 56 55 55 56 56 55 56 56 58 58 57 57 58 59 59 59 60 60 59 60 60 59 58 57 57 58 57 58 56 57
39 44 45 36 35 37 36 38 40 38 37 38 39 41 49 49 48 49 51 44 41 42 51 47 46 45 42 44 44 47 40 42 41 42 44 40 43 41 40 42 40 38 38 38 35 37 39 44 48 50 52 53 52 52 50 52 51 52 53 53 54 54 55 55 57 57 57 58 58 58 60 60 59 58 57 56 57 58 60 58 57 57 58 58 56 57 56
47 43 38 37 39 38 39 38 38 36 38 38 42 42 45 48 48 49 53 46 46 49 47 43 44 42 41 43 40 40 39 43 37 38 42 40 38 36 36 35 36 36 38 37 36 39 43 44 49 51 49 48 47 47 49 49 49 48 48 50 50 51 53 56 57 58 58 59 59 61 61 61 60 59 57 57 57 57 59 60 60 59 59 58 57 57 57
41 40 43 42 40 38 40 40 40 42 39 40 45 49 51 51 51 50 48 47 51 49 46 44 46 41 44 43 38 38 38 40 39 37 39 39 38 37 36 35 35 35 33 35 39 40 41 45 49 51 51 50 51 49 49 46 50 53 48 47 48 51 51 54 58 60 59 58 60 60 60 59 59 60 60 59 59 59 61 60 60 60 59 59 58 58 57
46 44 40 41 39 39 40 39 40 41 41 42 43 45 47 46 48 49 49 48 49 49 46 42 41 39 36 37 36 34 36 39 39 36 36 36 38 37 36 36 36 34 33 40 40 42 49 51 46 46 49 49 50 51 51 51 51 50 51 50 52 52 53 52 59 58 57 60 60 59 58 59 59 60 61 60 59 59 59 60 60 60 59 58 58 57 57
39 38 39 39 40 39 39 40 42 43 47 50 47 47 46 46 50 52 53 47 45 44 43 49 45 39 34 32 36 36 39 38 35 35 34 36 37 35 35 36 37 39 34 38 41 43 50 51 54 54 55 56 56 55 55 54 53 52 50 48 50 56 58 56 59 57 57 59 61 60 59 59 59 60 59 59 59 57 57 57 58 58 57 57 57 57 56